Theta_e
322 322 322 321 321 321 321 321 321 320 320 319 319 319 319 320 320 319 319 319 319 319 319 319 319 318 318 318 318 318 317 317 317 317 317 316 316 316 315 315 315 315
321 321 320 321 321 320 321 322 321 321 320 320 320 320 319 319 319 319 319 319 318 318 319 319 319 319 318 318 318 318 317 317 316 317 317 316 316 316 315 315 315 315
320 321 321 320 321 321 321 321 321 321 321 321 320 320 320 319 319 319 319 319 318 318 318 319 319 318 318 318 318 317 317 317 316 317 316 316 316 315 316 316 315 315
319 320 321 321 321 321 322 321 321 321 321 320 320 320 320 320 319 318 318 315 318 318 318 318 318 318 318 318 317 317 317 317 317 317 316 316 316 316 316 316 315 315
318 319 320 321 322 321 321 321 320 321 320 321 321 320 319 319 318 318 318 317 317 317 318 317 318 318 318 317 317 317 316 316 317 317 316 315 316 315 316 315 314 314
316 318 319 320 321 321 321 320 321 321 320 320 320 320 320 319 318 318 317 317 317 317 317 317 317 317 317 317 317 317 317 316 316 316 316 315 316 316 316 315 315 314
313 315 317 319 319 320 320 320 321 319 320 321 320 319 319 319 318 318 318 317 317 316 317 317 316 316 317 317 316 316 317 317 316 316 315 316 315 315 316 316 315 315
311 313 315 317 317 318 318 319 320 320 320 319 319 320 319 319 318 318 318 318 317 317 316 317 317 317 316 316 316 316 316 316 316 315 315 315 315 315 316 316 316 315
309 310 312 313 314 316 316 318 318 319 319 319 319 319 318 319 319 318 318 317 317 317 317 316 316 316 316 316 316 315 315 315 316 315 315 314 315 315 315 316 315 315
307 308 308 310 311 313 314 315 317 317 317 317 318 318 318 317 318 318 317 317 316 316 316 316 316 316 315 315 316 315 315 315 315 315 315 315 315 315 315 315 315 314
303 303 304 306 308 310 311 312 311 311 310 314 315 315 316 315 314 315 316 316 316 315 315 315 315 315 315 315 315 315 315 315 315 314 314 314 314 315 309 315 314 314
297 296 300 303 304 305 306 305 305 305 309 310 311 315 314 314 314 312 313 315 315 315 315 315 315 314 314 315 315 314 314 314 314 313 313 313 313 314 314 314 314 314
292 293 294 295 296 298 298 299 301 302 303 307 305 309 311 311 310 311 310 312 314 314 314 314 314 313 314 314 314 314 314 313 313 313 312 313 313 313 314 314 314 314
290 289 290 291 292 292 294 295 296 297 300 301 299 305 307 308 309 310 309 308 311 312 313 313 312 312 312 313 313 313 312 312 312 311 312 312 312 313 313 313 313 314
286 286 288 288 288 289 290 292 294 294 295 298 298 302 304 305 307 308 307 307 307 308 309 309 310 311 311 310 311 311 312 312 313 312 312 312 312 312 313 313 313 313
285 285 286 286 287 288 289 289 290 291 292 294 297 298 300 300 301 303 305 306 306 305 305 307 308 310 304 303 304 310 312 313 313 312 312 311 311 311 311 312 312 313
285 286 286 286 287 286 286 287 289 290 290 291 293 295 296 297 298 301 301 301 303 304 304 304 306 307 301 302 302 303 309 313 313 313 312 311 311 310 310 310 311 312
285 285 286 288 288 289 289 289 290 290 292 293 294 294 295 293 296 299 301 299 300 300 301 302 302 299 301 302 302 302 301 309 313 313 312 312 311 310 310 310 310 310
284 285 287 287 288 289 290 290 290 292 292 293 294 294 293 296 299 299 300 299 299 301 301 301 301 299 298 299 299 300 300 301 310 312 312 311 310 310 310 310 310 309
284 284 284 286 287 288 288 289 290 292 292 292 292 292 294 296 295 296 297 297 298 299 299 299 299 297 297 297 297 298 299 299 306 309 310 310 310 310 309 309 309 309
284 284 285 285 284 286 288 289 289 290 290 291 291 294 295 296 296 295 297 297 297 298 299 299 301 296 296 297 297 297 298 298 304 306 306 307 308 308 308 308 308 309
283 283 284 284 284 285 286 287 288 288 290 289 289 290 291 291 292 293 295 295 295 295 295 296 295 294 294 295 295 297 296 298 299 300 301 300 301 302 302 302 301 301
283 283 284 284 284 284 284 285 286 287 287 287 289 288 289 289 290 290 290 291 290 292 293 294 292 290 292 293 293 295 294 294 295 296 296 296 297 298 299 298 299 297
282 283 283 283 283 284 283 283 283 284 285 286 288 288 288 288 289 289 289 289 289 289 289 290 291 289 290 291 292 293 292 293 293 294 294 294 294 296 296 296 294 290
282 282 282 283 283 283 283 283 283 283 283 285 287 287 287 287 287 287 287 287 287 287 286 288 288 287 289 290 291 292 291 291 291 291 292 292 293 292 292 293 293 292
282 282 282 282 282 282 283 283 283 284 284 284 285 286 285 285 286 286 286 286 285 285 286 287 287 287 287 289 289 290 291 289 289 290 289 289 289 290 290 291 291 291
Wind_Speed
16 14 15 14 14 14 14 14 13 13 13 12 12 12 13 13 10 11 13 11 13 14 14 14 13 13 12 12 12 11 11 13 12 11 12 12 13 15 14 15 14 13
16 15 14 13 12 12 13 14 15 14 14 12 11 11 10 10 11 11 12 13 13 13 13 13 13 13 13 12 12 12 12 12 14 10 12 14 14 14 15 16 15 13
15 14 15 16 16 16 16 14 14 13 12 12 11 10 11 10 11 11 11 11 12 13 13 13 13 13 13 12 12 12 12 13 14 13 12 14 13 13 14 14 13 14
15 16 16 17 16 16 15 13 13 12 11 11 13 13 11 10 10 11 11 12 12 12 12 12 13 13 13 13 12 11 13 14 14 12 12 11 12 13 14 12 12 12
15 15 15 15 14 14 13 13 15 13 13 14 12 11 11 12 11 11 11 11 12 12 12 13 13 13 12 12 12 12 12 13 13 12 12 12 13 13 12 11 13 14
12 13 13 14 14 13 14 15 15 14 14 12 14 12 11 11 11 10 12 12 11 12 12 12 12 12 12 12 12 12 12 12 12 13 13 14 14 12 10 11 13 14
13 10 13 12 13 14 14 14 14 13 13 13 10 11 11 11 11 12 12 12 12 12 13 12 12 12 11 11 12 13 12 13 12 12 14 13 13 14 12 12 13 13
11 10 11 11 12 12 14 14 13 13 13 11 12 12 10 13 12 12 11 12 12 13 13 13 12 13 12 11 12 13 14 12 12 13 13 14 13 14 13 11 11 13
9 10 9 10 12 12 12 14 13 13 11 11 12 11 10 11 12 12 12 12 12 12 12 12 13 13 12 12 13 14 15 14 13 13 14 14 14 15 13 12 12 13
8 7 7 9 10 11 11 12 12 11 9 11 11 9 11 10 10 11 10 11 12 12 12 12 12 12 12 12 13 14 14 15 13 13 13 14 14 14 13 12 13 12
7 6 6 8 9 9 10 10 7 7 6 9 9 9 10 7 8 8 10 11 12 12 13 13 13 12 13 12 12 12 14 13 13 13 13 14 14 13 13 12 12 12
5 5 6 7 7 7 7 6 6 6 6 7 7 9 8 8 9 9 10 11 12 12 12 12 12 12 12 13 13 12 12 12 12 12 12 12 12 12 12 12 12 12
4 3 4 4 5 5 5 5 5 5 6 7 6 8 8 9 9 10 9 10 11 11 12 12 11 11 11 11 11 11 12 12 12 12 11 11 11 12 12 12 12 12
4 3 3 4 4 4 4 4 4 5 6 6 5 7 8 8 8 9 8 8 10 10 11 10 10 10 10 10 10 10 10 11 11 12 11 11 11 11 11 12 12 12
4 4 3 3 3 3 4 4 4 4 5 5 5 6 7 7 7 7 7 8 8 8 8 7 9 10 9 9 10 10 10 11 12 12 12 12 12 12 11 12 11 11
4 3 3 3 3 4 4 3 3 4 4 4 5 5 5 5 6 6 7 8 8 8 7 7 8 8 10 15 13 10 10 10 10 11 11 11 11 11 11 11 11 11
3 3 3 4 4 3 3 2 2 2 3 4 4 5 5 5 6 7 7 6 7 7 7 8 7 7 12 13 14 16 12 10 11 11 11 11 11 11 11 10 10 11
2 2 2 3 2 4 4 3 2 2 2 3 3 4 5 4 5 6 6 5 5 6 6 7 7 10 13 14 15 16 15 11 10 9 9 10 10 10 10 10 10 10
2 2 2 2 3 3 3 3 3 3 3 2 3 3 2 3 5 5 5 4 4 5 6 6 6 7 10 11 12 12 14 12 9 9 9 9 9 10 10 10 9 10
1 1 2 2 3 3 3 3 3 4 3 3 3 2 3 3 3 4 4 4 4 5 5 4 5 7 9 9 10 12 13 12 9 9 9 9 9 9 9 9 10 9
2 1 1 2 1 1 2 3 3 2 2 2 2 2 3 3 4 4 5 5 5 5 5 5 5 6 8 9 10 11 12 11 7 7 7 7 7 7 7 8 8 8
2 2 3 3 3 2 1 2 3 3 3 3 1 1 1 1 2 2 4 4 3 3 3 3 1 7 6 5 2 4 6 5 5 4 4 4 4 2 1 1 2 3
1 1 2 3 3 3 3 1 1 2 2 3 2 3 2 2 3 3 3 3 4 4 1 1 3 7 9 8 8 8 5 1 2 3 3 3 3 2 1 1 1 2
2 0 3 3 3 3 2 2 1 0 1 2 2 2 2 4 3 4 3 4 4 4 3 2 3 6 9 8 8 8 6 2 1 0 1 1 1 1 0 0 2 5
2 1 2 3 3 3 2 3 3 3 2 2 3 4 4 4 3 4 4 4 4 4 5 4 3 5 7 7 8 7 5 3 3 1 2 2 1 2 2 4 4 4
3 3 3 3 3 3 3 3 2 3 3 4 3 4 4 3 4 4 4 4 4 4 4 3 4 4 5 8 7 6 5 3 2 1 2 3 3 3 5 4 4 5
Wind_Direction
224 223 227 226 229 227 230 230 230 228 227 223 220 221 219 224 219 214 216 214 215 218 218 219 218 219 221 219 216 218 220 223 225 222 218 217 224 223 225 224 222 221
226 224 226 229 233 229 230 228 231 226 229 225 224 226 225 221 219 212 213 213 213 218 219 219 218 219 218 216 215 216 220 223 227 219 220 216 224 223 226 225 224 223
228 226 226 226 227 228 228 229 232 231 230 227 226 224 226 218 221 214 214 211 212 216 217 218 218 218 217 216 213 214 218 222 225 221 219 220 224 223 225 224 225 220
228 225 225 226 227 230 229 230 231 231 230 229 224 223 222 222 219 215 212 209 214 214 216 215 217 217 216 216 213 215 219 224 226 222 220 223 226 225 227 223 225 222
230 228 227 229 229 230 231 230 231 228 226 227 231 225 222 222 217 216 211 212 211 215 214 215 215 217 214 216 211 217 217 225 224 220 220 222 226 225 227 224 225 226
238 233 231 228 228 226 227 228 232 229 229 229 227 223 226 221 221 215 214 212 211 214 216 214 213 215 212 214 212 218 218 223 223 217 221 223 228 224 225 222 227 228
241 235 234 230 231 228 229 231 232 230 230 229 229 226 220 222 219 218 216 215 212 213 214 214 213 213 211 212 213 218 220 224 224 219 221 225 228 231 224 224 226 228
242 238 235 232 232 230 230 233 231 229 228 226 226 228 213 222 217 218 217 215 214 215 214 215 215 214 211 209 212 215 222 222 224 221 223 226 225 233 226 225 226 227
243 238 236 236 234 234 232 233 232 232 225 223 227 227 217 219 217 217 217 214 217 217 215 215 215 215 212 210 212 214 219 221 221 219 223 223 225 230 227 225 225 225
251 245 242 240 238 239 239 238 235 237 226 226 228 223 223 221 217 218 216 216 217 218 217 218 216 216 214 213 213 214 220 222 220 221 222 224 226 229 227 224 225 225
257 249 243 244 242 244 245 247 249 250 239 231 231 229 229 219 219 215 219 216 218 217 218 218 217 214 215 215 216 217 221 222 222 222 223 225 226 227 226 225 226 226
267 268 260 258 259 261 262 266 259 249 240 243 232 235 230 224 219 213 216 219 219 220 219 221 218 217 216 216 215 217 220 222 223 224 225 224 226 227 226 225 226 226
262 255 260 272 272 274 285 285 274 266 257 248 236 234 230 225 222 219 217 218 221 218 221 220 219 217 217 218 218 218 218 220 223 226 227 225 225 224 225 225 226 226
243 240 252 256 263 271 275 275 276 274 262 262 251 242 238 234 228 223 224 216 224 219 224 218 220 218 217 217 218 216 216 220 220 224 226 226 225 224 223 224 224 225
253 251 244 254 260 266 267 261 257 257 262 259 252 251 248 244 241 233 228 228 229 227 227 220 220 222 215 211 212 215 215 219 219 221 222 224 225 225 223 223 224 224
282 289 288 277 260 251 256 270 278 282 283 276 269 262 260 256 251 244 235 230 229 229 228 225 228 225 222 214 210 211 213 219 221 222 222 224 226 226 226 223 223 223
313 308 329 301 288 274 249 229 234 261 279 277 274 273 269 262 251 249 244 239 232 229 226 228 231 228 223 220 218 214 215 219 220 223 220 223 223 224 225 222 223 224
217 260 255 253 255 255 251 229 204 200 219 242 265 274 270 283 274 256 254 247 243 239 236 232 233 228 224 225 222 221 217 222 224 224 222 222 222 222 225 222 224 224
259 235 242 247 230 229 233 233 210 195 204 205 228 231 268 273 260 265 262 262 253 251 247 244 245 242 242 240 238 233 228 224 233 229 225 224 221 221 221 222 222 225
326 258 258 256 264 265 257 228 201 216 212 203 205 212 218 242 256 258 265 262 247 243 250 255 253 257 247 241 237 235 232 224 230 229 228 226 222 220 220 222 221 224
349 356 331 306 297 302 307 300 291 274 255 234 191 197 196 220 237 244 247 243 240 230 231 236 243 251 240 238 233 233 237 231 238 238 238 235 229 221 222 221 223 227
343 357 5 7 13 25 18 327 324 322 311 334 346 308 280 259 281 253 261 261 267 253 232 242 21 41 43 28 343 265 242 223 229 240 245 257 257 268 251 235 220 223
306 51 45 39 48 67 53 41 341 320 330 358 18 16 25 23 13 19 17 23 29 23 35 63 57 26 30 27 22 18 30 69 161 183 200 214 225 205 181 156 129 115
306 51 87 82 78 70 50 20 29 322 358 12 51 24 37 35 23 33 34 40 40 41 15 11 1 8 14 15 22 17 10 359 16 91 230 227 268 273 235 64 63 59
323 4 66 89 79 70 61 63 52 40 360 18 43 67 61 30 31 38 25 23 17 12 10 18 357 0 2 7 15 9 5 13 29 32 330 303 338 327 1 3 346 352
347 1 26 53 70 66 63 56 64 65 56 71 51 67 69 48 38 45 48 26 2 355 359 357 359 347 347 356 5 9 1 7 32 16 311 314 342 341 322 323 322 311